WB7GR Weather Reports


Display with metric or nautical units.
time (UTC)temp
F
wind
direction
speed
MPH
gust
MPH
rain 1hr
in
rain 24hr
in
rain mn
in
humidity
%
barometer
mb
20260504213107 61 15 1.0 6.0 0.00 0.00 0.00 39 1009.9
20260504211556 61 332 2.0 10.0 0.00 0.00 0.00 38 1010.3
20260504210047 61 300 6.0 11.0 0.00 0.00 0.00 38 1010.4
20260504204541 61 342 3.0 14.0 0.00 0.00 0.00 39 1010.2
20260504203052 62 52 1.0 5.0 0.00 0.00 0.00 39 1010.4
20260504201542 61 15 0.0 9.0 0.00 0.00 0.00 38 1010.5
20260504200056 62 43 2.0 6.0 0.00 0.00 0.00 37 1010.4
20260504194548 62 22 0.0 11.0 0.00 0.00 0.00 38 1010.4
20260504193059 63 350 8.0 17.0 0.00 0.00 0.00 37 1010.3
20260504191554 62 14 6.0 16.0 0.00 0.00 0.00 36 1010.2
20260504190046 64 360 9.0 18.0 0.00 0.00 0.00 35 1010.0
20260504184556 63 5 8.0 20.0 0.00 0.00 0.00 36 1010.0
20260504183041 63 26 7.0 21.0 0.00 0.00 0.00 35 1009.8
20260504181552 63 9 12.0 27.0 0.00 0.00 0.00 36 1010.0
20260504180103 65 360 13.0 27.0 0.00 0.00 0.00 33 1009.9
20260504174554 65 345 9.0 24.0 0.00 0.00 0.00 31 1009.9
20260504173041 65 331 4.0 15.0 0.00 0.00 0.00 28 1010.0
20260504171612 68 336 4.0 13.0 0.00 0.00 0.00 23 1009.6
20260504160110 64 257 3.0 0.0 0.00 0.00 0.00 25 1009.4
20260504081556 40 229 0.0 1.0 0.00 0.00 0.00 64 1011.1
20260504060117 46 260 1.0 3.0 0.00 0.00 0.00 53 1012.3
20260504044613 49 16 0.0 0.0 0.00 0.00 0.00 49 1012.6
20260504043045 49 16 0.0 0.0 0.00 0.00 0.00 48 1012.7
20260504041556 50 16 0.0 0.0 0.00 0.00 0.00 47 1012.7
20260504040051 51 16 0.0 1.0 0.00 0.00 0.00 47 1012.7
20260504034541 52 59 0.0 0.0 0.00 0.00 0.00 45 1012.7
20260504033054 52 59 0.0 0.0 0.00 0.00 0.00 44 1012.7
20260504031607 53 59 0.0 3.0 0.00 0.00 0.00 43 1012.5
20260504030118 54 61 0.0 2.0 0.00 0.00 0.00 42 1012.5
20260504024547 56 57 1.0 4.0 0.00 0.00 0.00 39 1012.3
20260504023056 57 41 0.0 4.0 0.00 0.00 0.00 37 1012.4
20260504021611 58 32 0.0 2.0 0.00 0.00 0.00 35 1012.4
20260504020100 59 26 0.0 4.0 0.00 0.00 0.00 34 1012.1
20260504014549 61 31 2.0 6.0 0.00 0.00 0.00 33 1011.9
20260504013045 63 340 5.0 19.0 0.00 0.00 0.00 29 1012.1
20260504011553 66 350 3.0 8.0 0.00 0.00 0.00 23 1011.7
20260504010104 65 347 1.0 4.0 0.00 0.00 0.00 24 1011.7
20260504004557 66 22 3.0 12.0 0.00 0.00 0.00 24 1011.7
20260504003049 68 19 4.0 18.0 0.00 0.00 0.00 22 1011.6
20260503223049 68 271 6.0 18.0 0.00 0.00 0.00 15 1012.0
20260503221558 68 342 7.0 14.0 0.00 0.00 0.00 16 1012.1
20260503220047 68 229 7.0 12.0 0.00 0.00 0.00 16 1012.2
20260503214600 68 187 3.0 12.0 0.00 0.00 0.00 20 1012.4